Weather History for Hillsdale, MI

Change the Weather History Date:

Sunday, January 27, 2013

  Actual Average Record
Temperature  
Mean Temperature 22 °F -  
Max Temperature 31 °F 29 °F 55 °F (2002)
Min Temperature 15 °F 13 °F -17 °F (1987)
Degree Days  
Heating Degree Days 42    
Moisture  
Dew Point 17 °F    
Average Humidity 79    
Maximum Humidity 93    
Minimum Humidity 62    
Precipitation  
Precipitation 0.00 in - - ()
Sea Level Pressure  
Sea Level Pressure 30.31 in    
Wind  
Wind Speed 6 mph (SSE)    
Max Wind Speed 17 mph    
Max Gust Speed 25 mph    
Visibility 8 miles    
Events Snow    
Averages and records for this station are not official NWS values.
T = Trace of Precipitation, MM = Missing Value Source: NWS Daily Summary

Daily Weather History Graph

Daily Weather History Graph

Search for Another Location

Airport:

Trip Planner

Search our weather history database for the weather conditions in past years. The results will help you decide how hot, cold, wet, or windy it might be!

Date:

Astronomy

Jan. 27, 2013 Rise Set
Actual Time 7:55 AM EST 5:47 PM EST
Civil Twilight 7:25 AM EST 6:17 PM EST
Nautical Twilight 6:51 AM EST 6:50 PM EST
Astronomical Twilight 6:18 AM EST 7:23 PM EST
Moon 6:42 PM EST (1/27) 7:46 AM EST (1/27)
Length of Visible Light 10h 51m
Length of Day
9h 51m
Full, 100% of the Moon is Illuminated
Jan 27
Full
Feb 3
Last Quarter
Feb 10
New
Feb 17
First Quarter
Feb 25
Full

Hourly Weather History & Observations

Time (EST) Temp. Windchill Dew Point Humidity Pressure Visibility Wind Dir Wind Speed Gust Speed Precip Events Conditions
12:15 AM 16.5 °F 11.0 °F 12.6 °F 84% 30.40 in 10.0 mi South 3.5 mph - N/A   Clear
12:34 AM 17.4 °F - 12.2 °F 80% 30.41 in 10.0 mi Calm Calm - N/A   Clear
12:54 AM 17.1 °F - 12.2 °F 81% 30.40 in 10.0 mi Calm Calm - N/A   Clear
1:15 AM 16.0 °F 10.4 °F 11.3 °F 82% 30.40 in 10.0 mi South 3.5 mph - N/A   Clear
1:34 AM 16.0 °F 10.4 °F 11.8 °F 84% 30.39 in 10.0 mi SSE 3.5 mph - N/A   Clear
1:55 AM 15.6 °F 8.3 °F 10.8 °F 81% 30.38 in 10.0 mi SSE 4.6 mph - N/A   Clear
2:14 AM 17.8 °F - 11.7 °F 77% 30.38 in 10.0 mi Calm Calm - N/A   Clear
2:35 AM 16.9 °F 11.5 °F 11.5 °F 79% 30.38 in 10.0 mi SSE 3.5 mph - N/A   Clear
2:54 AM 17.1 °F 11.7 °F 11.3 °F 78% 30.37 in 10.0 mi SSE 3.5 mph - N/A   Scattered Clouds
3:14 AM 17.8 °F - 11.7 °F 77% 30.39 in 10.0 mi Calm Calm - N/A   Overcast
3:35 AM 16.9 °F - 11.1 °F 78% 30.40 in 10.0 mi Calm Calm - N/A   Scattered Clouds
3:54 AM 17.4 °F 9.1 °F 12.2 °F 80% 30.37 in 10.0 mi SE 5.8 mph - N/A   Mostly Cloudy
4:14 AM 17.2 °F 10.2 °F 12.0 °F 80% 30.38 in 10.0 mi South 4.6 mph - N/A   Overcast
4:35 AM 17.6 °F 10.7 °F 13.1 °F 83% 30.38 in 10.0 mi SE 4.6 mph - N/A   Overcast
4:54 AM 18.3 °F 13.1 °F 13.6 °F 82% 30.38 in 10.0 mi SE 3.5 mph - N/A   Overcast
5:15 AM 18.9 °F 13.7 °F 14.2 °F 82% 30.39 in 10.0 mi South 3.5 mph - N/A   Mostly Cloudy
5:35 AM 19.0 °F - 14.2 °F 81% 30.38 in 10.0 mi Calm Calm - N/A   Overcast
5:54 AM 19.0 °F - 14.2 °F 81% 30.38 in 10.0 mi Calm Calm - N/A   Overcast
6:15 AM 18.3 °F 13.1 °F 13.5 °F 81% 30.39 in 10.0 mi ESE 3.5 mph - N/A   Overcast
6:34 AM 18.9 °F 12.1 °F 14.5 °F 83% 30.39 in 10.0 mi South 4.6 mph - N/A   Scattered Clouds
6:55 AM 18.1 °F 11.3 °F 14.2 °F 84% 30.40 in 10.0 mi South 4.6 mph - N/A   Scattered Clouds
7:15 AM 17.8 °F 10.9 °F 14.2 °F 86% 30.38 in 10.0 mi SSE 4.6 mph - N/A   Scattered Clouds
7:34 AM 16.9 °F 9.8 °F 13.6 °F 87% 30.38 in 7.0 mi SSE 4.6 mph - N/A   Clear
7:55 AM 17.2 °F 10.2 °F 14.5 °F 89% 30.38 in 7.0 mi SSE 4.6 mph - N/A   Clear
8:15 AM 17.6 °F 9.3 °F 14.9 °F 89% 30.39 in 7.0 mi SSE 5.8 mph - N/A   Scattered Clouds
8:34 AM 18.7 °F 9.5 °F 15.1 °F 86% 30.38 in 7.0 mi SSE 6.9 mph - N/A   Scattered Clouds
8:55 AM 19.8 °F 10.8 °F 15.1 °F 82% 30.40 in 10.0 mi South 6.9 mph - N/A   Clear
9:15 AM 20.1 °F 8.8 °F 14.4 °F 78% 30.39 in 10.0 mi SSE 10.4 mph - N/A   Scattered Clouds
9:34 AM 21.7 °F 11.5 °F 14.2 °F 73% 30.38 in 10.0 mi SSE 9.2 mph - N/A   Mostly Cloudy
9:55 AM 22.5 °F 11.7 °F 13.6 °F 69% 30.38 in 10.0 mi South 10.4 mph 17.3 mph N/A   Overcast
10:14 AM 22.5 °F 11.1 °F 13.8 °F 69% 30.39 in 10.0 mi South 11.5 mph 20.7 mph N/A   Overcast
10:34 AM 23.0 °F 11.7 °F 14.4 °F 70% 30.39 in 10.0 mi SSE 11.5 mph 16.1 mph N/A   Overcast
10:55 AM 23.9 °F 15.0 °F 14.2 °F 66% 30.38 in 10.0 mi SSE 8.1 mph - N/A   Mostly Cloudy
11:14 AM 24.6 °F 15.8 °F 14.5 °F 66% 30.38 in 10.0 mi SSE 8.1 mph - N/A   Mostly Cloudy
11:35 AM 24.6 °F 15.1 °F 14.2 °F 65% 30.38 in 10.0 mi South 9.2 mph - N/A   Mostly Cloudy
11:54 AM 25.2 °F 16.5 °F 14.7 °F 65% 30.38 in 10.0 mi SSE 8.1 mph - N/A   Scattered Clouds
12:15 PM 25.9 °F 15.3 °F 15.1 °F 64% 30.38 in 10.0 mi South 11.5 mph - N/A   Scattered Clouds
12:35 PM 26.2 °F 17.1 °F 14.9 °F 62% 30.36 in 10.0 mi SSE 9.2 mph - N/A   Clear
12:54 PM 26.2 °F 17.8 °F 14.9 °F 62% 30.34 in 10.0 mi SSE 8.1 mph - N/A   Clear
1:15 PM 27.0 °F 19.5 °F 15.6 °F 62% 30.34 in 10.0 mi SSE 6.9 mph - N/A   Clear
1:34 PM 27.3 °F 19.1 °F 16.2 °F 63% 30.33 in 10.0 mi SSE 8.1 mph - N/A   Clear
1:54 PM 27.7 °F 20.4 °F 16.5 °F 63% 30.32 in 10.0 mi SSE 6.9 mph - N/A   Mostly Cloudy
2:15 PM 27.3 °F 19.9 °F 17.4 °F 66% 30.31 in 10.0 mi South 6.9 mph - N/A   Mostly Cloudy
2:34 PM 27.3 °F 20.9 °F 17.4 °F 66% 30.30 in 10.0 mi SSE 5.8 mph - N/A   Mostly Cloudy
2:55 PM 27.3 °F 19.9 °F 17.8 °F 67% 30.28 in 10.0 mi SE 6.9 mph - N/A   Scattered Clouds
3:15 PM 27.9 °F 19.8 °F 18.1 °F 67% 30.26 in 10.0 mi SE 8.1 mph - N/A   Clear
3:34 PM 27.7 °F 18.8 °F 18.9 °F 69% 30.26 in 10.0 mi ESE 9.2 mph - N/A   Scattered Clouds
3:55 PM 27.3 °F 17.7 °F 19.0 °F 71% 30.25 in 10.0 mi SE 10.4 mph - N/A   Mostly Cloudy
4:14 PM 27.0 °F 16.7 °F 19.8 °F 74% 30.25 in 10.0 mi SE 11.5 mph - N/A   Overcast
4:35 PM 27.0 °F 18.0 °F 19.9 °F 75% 30.27 in 10.0 mi SE 9.2 mph - N/A   Overcast
4:54 PM 26.4 °F 16.6 °F 19.8 °F 76% 30.28 in 10.0 mi South 10.4 mph - N/A   Overcast
5:15 PM 26.4 °F 18.0 °F 19.9 °F 77% 30.27 in 7.0 mi SE 8.1 mph - N/A   Overcast
5:35 PM 26.2 °F 17.8 °F 20.8 °F 80% 30.27 in 2.0 mi SSE 8.1 mph - N/A Snow Light Snow
5:54 PM 26.1 °F 14.5 °F 21.4 °F 82% 30.24 in 2.5 mi ESE 13.8 mph - N/A Snow Light Snow
6:15 PM 26.1 °F 15.0 °F 22.1 °F 85% 30.24 in 7.0 mi East 12.7 mph - N/A   Overcast
6:34 PM 26.2 °F 17.1 °F 22.6 °F 86% 30.24 in 7.0 mi SSE 9.2 mph - N/A   Overcast
6:54 PM 26.1 °F 17.6 °F 22.6 °F 87% 30.22 in 7.0 mi SE 8.1 mph 16.1 mph N/A   Overcast
7:15 PM 26.2 °F 15.8 °F 23.2 °F 88% 30.20 in 7.0 mi SE 11.5 mph 19.6 mph N/A   Overcast
7:34 PM 26.4 °F 16.0 °F 22.8 °F 86% 30.21 in 7.0 mi SE 11.5 mph - N/A   Overcast
7:55 PM 27.0 °F 19.5 °F 22.8 °F 84% 30.25 in 7.0 mi SSE 6.9 mph - N/A   Overcast
8:14 PM 27.0 °F 16.7 °F 22.6 °F 84% 30.22 in 7.0 mi SSE 11.5 mph - N/A   Overcast
8:34 PM 26.4 °F 14.5 °F 23.4 °F 88% 30.16 in 1.5 mi SSE 15.0 mph 19.6 mph N/A Snow Light Snow
8:54 PM 27.0 °F 14.7 °F 24.4 °F 90% 30.15 in 3.0 mi SE 16.1 mph 21.9 mph N/A Snow Light Snow
9:14 PM 27.7 °F 17.6 °F 25.2 °F 90% 30.15 in 5.0 mi SSE 11.5 mph 21.9 mph N/A Snow Light Snow
9:35 PM 28.4 °F 17.0 °F 26.6 °F 93% 30.13 in 4.0 mi SE 15.0 mph 21.9 mph N/A Snow Light Snow
9:54 PM 28.8 °F 17.0 °F 27.0 °F 93% 30.12 in 5.0 mi SSE 16.1 mph 25.3 mph N/A Snow Light Snow
10:15 PM 29.1 °F 18.9 °F 27.3 °F 93% 30.11 in 5.0 mi SSE 12.7 mph 21.9 mph N/A   Overcast
10:35 PM 29.5 °F 18.8 °F 27.3 °F 92% 30.09 in 5.0 mi SE 13.8 mph 19.6 mph N/A   Overcast
10:54 PM 29.8 °F 18.0 °F 27.3 °F 90% 30.08 in 5.0 mi SSE 17.3 mph 24.2 mph N/A   Overcast
11:15 PM 30.7 °F 20.9 °F 28.0 °F 90% 30.07 in 4.0 mi SSE 12.7 mph 18.4 mph N/A Snow Light Snow
11:34 PM 30.7 °F 20.9 °F 28.6 °F 92% 30.07 in 4.0 mi SSE 12.7 mph 17.3 mph N/A Snow Light Snow
11:55 PM 31.5 °F 22.3 °F 29.5 °F 92% 30.06 in 2.5 mi SSE 11.5 mph 18.4 mph N/A Snow Light Snow